Temperature
25 24 24 24 27 29 30 32 33 32 32 32 31 31 30 28 28 25 24 23 22 22 21 21 21 20 20 19 19 19 19 19 19 19 19 18 18 18 18 18 18 18 18 18 18 18 18 18 18
25 24 25 27 29 29 30 32 32 32 32 31 31 31 30 28 26 25 24 23 22 22 21 21 21 20 20 19 19 19 19 19 19 19 18 18 18 18 18 18 18 18 18 18 18 18 18 18 18
25 25 27 30 30 30 31 32 32 32 32 31 31 30 29 27 26 24 23 23 22 21 21 21 20 20 20 19 19 19 19 19 19 19 19 18 18 18 18 18 18 18 18 18 18 18 18 18 18
24 27 29 31 31 32 33 32 32 32 32 31 30 29 27 26 25 24 23 23 22 21 21 21 20 20 20 19 19 19 19 19 19 19 19 18 18 18 18 18 18 18 18 18 18 18 18 18 18
26 29 30 31 32 33 33 33 33 32 32 31 30 28 26 25 25 24 24 23 22 21 21 21 21 20 20 19 19 19 19 19 19 19 18 18 18 18 18 18 18 18 18 18 18 18 18 18 18
28 31 30 30 32 33 33 33 33 32 32 31 30 28 26 25 24 24 24 23 23 21 21 21 21 20 20 19 19 19 19 19 19 18 18 18 18 18 18 18 18 18 18 18 18 18 18 18 18
29 31 30 31 32 33 33 33 33 32 32 31 30 28 26 25 24 24 24 23 23 21 21 21 21 20 20 20 19 19 19 19 19 18 18 18 18 18 18 18 18 18 18 18 18 18 18 18 18
30 31 31 32 32 32 33 33 32 32 31 31 30 29 26 24 24 24 24 23 23 22 21 21 20 20 20 20 19 19 19 19 19 19 18 18 18 18 18 18 18 18 18 18 18 18 18 18 18
30 30 30 32 33 32 33 33 32 31 31 30 30 28 26 25 24 24 24 23 23 22 21 21 20 20 19 19 19 19 19 19 19 18 18 18 18 18 18 18 18 18 18 18 18 18 18 18 18
31 30 31 33 33 33 33 33 32 32 31 30 29 27 26 25 25 24 24 23 22 22 21 21 20 20 19 19 19 19 19 19 18 18 18 18 18 18 18 18 18 18 18 18 18 18 18 18 18
32 31 32 33 33 32 33 32 32 32 31 29 28 27 26 25 25 25 24 24 23 22 21 21 20 20 19 19 19 19 18 18 18 18 18 18 18 18 18 18 18 18 18 18 18 18 18 18 18
32 32 32 33 32 32 32 32 32 31 31 30 28 27 26 25 25 25 24 24 23 22 21 21 20 20 19 19 19 19 19 18 18 18 18 18 18 18 18 18 18 18 18 18 18 18 18 18 17
32 32 32 32 32 31 31 32 32 31 30 29 28 27 27 26 26 25 24 24 23 22 21 21 21 20 20 19 19 19 18 18 18 18 18 18 18 18 18 18 18 18 18 18 18 17 17 17 17
32 32 32 32 32 31 32 32 32 31 30 29 28 28 27 26 26 25 24 23 22 22 21 21 20 20 19 19 19 19 19 18 18 18 18 18 18 18 18 18 18 18 18 18 17 17 17 17 17
31 31 32 32 32 32 32 31 32 31 30 29 29 28 27 27 26 25 24 23 22 21 21 21 20 20 19 19 19 19 19 18 18 18 18 18 18 18 18 17 17 17 17 17 17 17 17 17 17
31 31 30 32 32 32 31 30 32 31 30 30 29 28 28 27 26 25 24 23 22 21 21 20 20 20 19 19 19 19 19 18 18 18 18 18 18 18 17 17 17 17 17 17 17 17 17 17 17
30 30 30 31 32 32 31 30 31 31 30 30 29 28 27 26 26 25 24 23 22 21 21 20 20 20 19 19 19 19 19 18 18 18 18 18 18 18 17 17 17 17 17 17 17 17 17 17 17
29 30 30 31 32 32 31 30 31 30 30 30 29 28 27 26 25 24 23 23 22 21 21 20 20 19 19 19 19 18 18 18 18 18 18 18 18 18 17 17 17 17 17 17 17 17 17 17 17
30 30 30 31 32 32 31 30 31 31 30 30 29 28 27 26 25 24 23 22 22 21 20 20 19 19 19 19 18 18 18 18 18 18 17 17 17 17 17 17 17 17 17 17 17 17 17 17 17
30 30 30 31 32 31 30 30 31 31 30 29 29 29 27 26 25 24 23 22 22 21 20 20 19 19 19 18 18 18 18 18 18 18 17 17 17 17 17 17 17 17 17 17 17 17 17 17 17
30 30 30 30 31 31 30 29 30 30 30 29 29 29 28 26 25 24 23 22 22 21 20 20 19 19 19 18 18 18 18 18 18 18 17 17 17 17 17 17 17 17 17 17 17 17 17 17 17
29 31 31 30 30 29 30 28 29 30 30 30 29 29 28 27 25 24 23 22 22 21 20 20 19 19 19 18 18 18 18 18 18 18 17 17 17 17 17 17 17 17 17 16 16 17 17 17 17
30 31 30 30 29 29 29 29 29 29 29 29 29 29 28 27 25 24 23 22 22 21 20 19 19 19 18 18 18 18 18 18 17 17 17 17 17 17 17 17 17 17 16 16 16 16 16 17 17
30 30 30 29 29 27 28 28 27 29 28 28 29 28 28 27 26 24 23 22 22 21 20 19 19 19 18 18 18 18 18 17 17 17 17 17 17 17 16 16 16 16 16 16 16 16 16 16 16
30 28 27 26 26 27 28 28 27 29 29 29 29 28 27 27 26 24 23 22 21 21 20 19 19 19 18 18 18 18 18 17 17 17 17 17 17 16 16 16 16 16 16 16 16 16 16 16 16
29 28 26 25 25 27 28 27 28 29 30 29 29 28 27 26 26 24 23 22 21 21 20 19 19 18 18 18 18 18 18 17 17 17 17 17 17 17 16 16 16 16 16 16 16 16 16 16 16
28 28 28 27 27 27 27 28 28 29 29 29 28 28 27 26 25 24 23 22 22 21 20 20 19 18 18 18 18 18 18 17 17 17 17 17 16 16 16 16 16 16 16 15 16 15 16 16 16
29 29 28 27 25 25 27 27 27 27 27 28 28 27 26 25 24 23 22 22 21 21 20 20 19 18 18 18 18 17 17 17 17 16 16 16 16 16 16 16 16 16 15 15 15 15 15 15 15
28 28 27 27 26 25 25 26 27 26 27 27 27 27 25 25 24 23 22 21 21 21 20 19 19 18 18 17 17 17 17 17 17 16 16 16 16 16 16 16 16 16 15 15 15 15 15 15 15
28 27 27 25 25 25 25 26 27 26 27 27 26 26 25 24 23 22 21 21 20 20 20 19 19 18 18 17 17 17 17 17 16 16 16 16 16 16 16 16 15 15 15 15 15 15 15 15 15
Wind_Speed
8 11 9 7 6 4 2 5 10 11 12 12 12 11 15 15 11 10 11 13 17 17 16 15 13 12 11 10 10 10 10 9 9 9 9 9 9 9 9 10 10 10 10 10 10 10 9 9 9
9 11 9 6 5 2 2 7 12 11 10 9 10 12 14 14 14 12 11 13 16 16 16 14 13 12 11 10 10 10 10 10 9 9 9 9 9 9 9 9 10 10 10 10 10 9 8 8 7
11 14 8 6 5 2 4 9 10 9 9 9 10 12 11 10 12 10 11 13 16 16 17 15 14 12 11 11 10 10 10 9 9 9 9 9 9 9 9 9 10 10 10 10 9 8 8 7 7
8 8 6 6 5 2 5 8 8 7 8 8 9 10 11 10 10 13 13 13 15 16 17 16 14 13 12 11 10 10 9 9 9 9 9 9 9 9 9 9 9 9 10 10 9 8 7 7 6
10 8 8 8 5 3 6 7 6 6 8 8 10 13 13 12 15 15 12 13 14 15 15 16 15 13 12 11 10 10 9 9 9 9 9 9 8 9 9 9 9 9 9 9 8 7 6 6 5
8 8 8 7 4 3 6 5 5 6 8 8 11 13 11 12 13 12 12 11 14 15 14 14 15 13 12 11 11 10 9 9 9 9 8 8 8 8 8 8 8 8 8 8 7 6 6 5 4
12 11 10 10 5 2 6 5 4 4 6 6 8 11 11 13 12 11 11 11 13 14 13 11 12 12 12 12 11 10 9 9 8 8 8 7 8 8 8 8 8 8 7 7 6 5 5 4 3
12 11 13 11 6 3 6 4 4 5 5 6 5 8 12 14 13 12 11 11 12 12 11 10 11 11 10 10 10 10 9 8 8 7 7 6 7 8 8 8 7 7 6 6 5 5 4 4 3
14 12 12 10 5 3 6 5 5 5 4 5 7 13 16 16 15 13 11 10 10 10 9 8 9 9 10 10 10 10 9 8 7 6 6 6 5 6 7 8 8 7 6 6 5 5 4 4 4
11 11 11 7 2 3 4 4 4 4 5 5 10 15 18 16 14 13 11 11 10 9 8 8 7 8 8 8 9 7 7 8 6 5 5 5 3 5 7 9 8 7 6 6 6 6 6 5 4
13 13 9 6 1 2 3 3 3 4 5 6 9 14 15 15 12 11 11 11 10 9 7 8 7 6 6 5 6 5 5 6 5 5 3 3 2 5 6 6 7 6 6 4 4 5 4 4 3
13 11 9 7 3 4 4 3 2 2 3 8 9 12 13 13 12 10 10 11 10 9 9 8 8 7 5 4 4 4 4 4 5 4 3 3 1 2 3 2 4 4 3 3 3 2 2 2 1
13 11 9 7 5 6 7 6 4 4 5 9 11 12 13 12 11 10 10 10 11 10 8 7 8 6 5 4 2 3 3 3 5 5 3 3 1 2 2 1 1 1 2 2 1 1 2 1 1
11 11 10 9 9 9 9 8 7 7 8 9 10 11 11 11 11 10 10 9 10 8 7 6 7 7 5 3 1 2 3 3 5 4 4 2 3 2 1 2 1 1 2 1 1 1 2 2 1
11 12 13 12 11 10 10 11 10 8 9 10 10 10 10 11 11 11 11 10 10 9 8 6 7 7 5 4 2 2 3 4 3 4 5 3 3 3 1 1 1 1 1 1 1 1 2 2 2
13 14 15 14 13 11 12 12 8 10 11 10 10 10 10 9 10 11 11 10 11 10 8 7 7 7 6 4 2 2 2 3 3 4 5 4 3 3 1 1 2 1 1 1 1 1 2 2 2
15 15 15 12 13 12 13 10 7 9 12 11 11 10 10 10 10 10 10 10 10 10 8 7 6 6 6 5 2 2 2 2 3 4 4 4 3 3 2 2 2 1 1 1 1 3 2 2 2
11 11 12 12 11 12 12 10 9 10 10 12 11 11 9 10 10 10 10 10 10 10 9 7 6 6 5 4 3 2 2 2 2 3 3 5 3 3 2 2 2 1 2 2 3 3 2 1 1
13 12 12 11 9 10 11 11 12 11 10 9 11 12 11 10 10 10 10 10 11 10 9 7 7 6 4 3 3 3 3 2 2 3 4 4 3 3 2 1 2 1 2 2 2 2 1 1 1
15 13 12 10 9 9 10 11 10 10 12 10 11 12 13 12 11 10 9 9 10 10 9 8 7 6 5 4 3 3 3 3 3 2 4 4 3 3 2 2 1 1 2 2 1 1 0 1 1
14 13 12 12 11 10 11 13 12 11 11 11 10 11 13 13 13 12 10 9 10 11 10 8 7 7 5 5 3 2 2 2 2 3 3 3 4 4 2 3 2 1 1 1 1 0 0 1 0
13 12 12 13 12 11 12 12 13 13 12 13 12 12 12 13 14 13 12 10 10 11 11 9 8 7 6 5 4 4 4 3 3 3 3 3 4 4 4 3 3 1 1 2 1 2 1 1 1
13 10 11 13 14 14 14 13 10 10 11 11 11 11 11 12 14 13 13 11 10 10 12 10 9 7 6 6 5 4 3 3 3 3 4 3 4 4 4 4 2 2 1 1 1 1 1 1 1
11 11 13 13 13 16 15 13 10 9 11 11 10 10 10 11 12 12 11 10 9 10 11 11 10 8 7 6 6 5 5 4 4 4 4 3 3 3 3 3 2 2 1 1 1 1 1 1 1
12 10 9 10 11 14 12 12 9 8 11 12 12 11 11 10 11 12 12 12 10 10 10 11 10 9 8 7 6 5 5 5 5 4 4 4 3 3 3 3 2 2 1 2 1 2 2 1 1
12 13 11 10 11 11 11 10 8 7 7 9 10 10 10 9 10 10 11 11 11 10 9 9 10 9 9 8 7 5 5 4 4 4 3 4 3 3 4 3 3 2 2 2 1 2 2 1 2
13 13 14 13 14 13 10 9 7 5 6 7 7 7 8 7 7 7 7 7 8 9 9 9 9 9 8 8 7 6 5 5 4 4 4 3 3 4 4 4 4 3 3 2 2 2 2 2 2
14 13 9 10 10 12 11 10 7 7 7 7 8 7 6 6 7 7 6 7 7 7 7 8 9 8 8 8 7 7 6 5 4 4 4 3 4 3 4 4 4 4 3 3 2 2 2 2 2
11 12 11 10 10 11 10 5 2 4 4 5 5 6 7 6 6 6 5 5 6 7 7 7 8 8 7 7 6 5 5 5 5 5 4 4 4 4 4 4 3 3 3 3 3 3 3 3 2
11 11 10 9 9 10 10 6 3 3 4 4 3 5 7 6 5 6 5 4 3 5 6 6 7 8 7 6 6 6 5 5 5 5 4 4 4 4 3 4 4 4 4 4 4 4 3 3 3
Wind_Direction
241 243 237 250 247 247 298 76 72 67 66 56 51 60 64 52 61 92 108 108 109 113 115 111 107 103 98 92 87 84 81 80 81 82 88 92 92 92 93 94 94 91 93 102 104 103 106 107 108
256 252 243 246 253 260 45 69 69 66 72 72 67 67 73 69 81 103 108 112 113 115 117 112 111 105 101 96 91 85 83 82 83 84 90 93 93 95 95 97 97 93 93 98 100 102 106 108 109
260 258 261 247 252 262 76 83 83 83 83 79 74 64 63 80 91 106 117 120 113 113 113 115 114 108 105 102 96 90 86 86 86 86 89 95 97 98 99 99 98 95 93 93 98 103 103 103 107
262 244 239 257 262 42 87 92 95 94 89 82 85 82 75 78 99 114 126 121 114 112 115 118 118 115 112 108 103 97 92 89 87 87 91 96 103 105 105 103 102 100 97 95 96 99 102 100 98
247 258 245 259 261 99 92 93 108 102 92 86 88 91 89 88 105 118 128 119 115 111 113 121 122 121 119 114 108 101 95 93 91 94 96 98 105 110 110 107 105 103 100 101 101 99 100 102 103
258 257 261 257 253 139 102 100 94 94 100 95 99 103 103 111 116 126 126 120 114 113 113 121 128 128 127 122 116 109 103 101 100 99 99 104 109 115 117 112 110 109 110 108 106 106 110 113 117
259 274 275 267 245 181 114 107 104 97 100 101 110 112 120 126 127 132 127 121 115 116 121 129 130 131 129 127 126 118 113 114 113 110 108 110 117 123 123 118 118 119 121 119 118 124 127 129 133
260 276 275 264 234 179 126 129 111 102 97 103 119 116 131 136 140 137 131 125 123 122 126 134 133 131 133 133 133 128 124 125 128 126 123 123 127 132 130 125 125 128 133 138 139 146 152 152 168
257 262 269 269 240 171 140 140 124 119 113 95 89 104 132 143 146 144 138 133 125 123 127 130 133 136 136 134 134 140 140 140 143 144 151 157 153 140 141 131 135 143 148 154 162 169 176 181 198
241 251 263 284 269 173 164 154 147 151 137 111 106 116 135 146 152 152 148 142 134 133 135 131 125 130 131 130 137 150 149 151 164 147 163 181 164 140 133 139 146 154 162 170 186 190 190 200 201
239 248 266 283 316 228 208 192 185 193 156 146 142 139 146 150 156 157 153 145 142 141 135 135 129 125 122 128 140 145 143 154 159 137 150 161 144 138 138 150 158 172 178 185 185 197 201 190 194
246 250 263 273 297 286 259 228 222 237 151 142 140 147 157 161 164 160 156 150 145 144 142 139 129 121 112 116 131 141 137 147 132 133 145 132 118 113 128 140 161 168 170 182 184 179 180 183 171
244 249 252 258 250 257 255 242 222 193 147 139 152 163 166 168 166 161 153 149 147 146 144 134 129 123 117 108 131 132 124 127 125 139 147 135 111 69 83 77 114 123 137 151 169 141 148 138 147
254 257 252 244 238 234 240 235 228 191 164 162 167 166 171 167 165 155 153 149 144 138 136 135 127 121 123 128 137 127 131 124 127 129 124 127 111 89 71 66 59 56 57 77 115 118 114 112 88
258 257 254 244 238 241 248 239 221 183 175 177 172 174 176 170 163 160 159 155 147 141 137 136 136 132 137 142 169 131 125 127 118 121 125 123 113 109 91 98 91 62 86 105 89 78 106 113 100
248 245 244 238 230 222 233 241 205 181 178 186 182 178 175 164 164 162 157 156 146 145 142 148 152 145 145 146 170 136 133 127 123 126 129 123 118 125 105 90 85 48 60 68 93 66 69 65 62
239 238 241 234 217 218 225 236 205 194 185 186 183 176 172 162 166 156 155 153 144 140 143 148 138 143 153 154 172 140 117 120 124 127 130 130 132 127 114 79 82 89 54 44 58 82 71 79 67
244 243 242 241 221 223 228 224 211 205 198 187 184 174 173 171 165 153 154 154 148 142 143 144 137 137 147 150 169 151 138 144 136 128 123 133 148 146 137 108 92 76 65 58 49 61 55 72 88
261 271 267 255 231 227 232 228 216 202 202 199 185 176 173 171 165 158 158 160 152 144 147 148 148 146 153 155 176 178 171 172 154 146 135 140 150 147 140 110 115 99 95 89 89 95 95 119 138
252 259 261 257 245 234 238 238 229 213 202 207 193 178 172 172 165 159 163 166 157 152 154 153 153 154 165 167 182 181 175 172 158 143 135 145 157 156 151 130 140 115 114 103 80 80 102 186 135
249 252 257 260 248 235 238 239 228 220 210 208 202 188 178 176 170 167 169 170 165 161 160 165 161 161 174 167 173 185 162 169 144 138 141 152 161 163 142 129 118 113 127 131 168 149 256 288 315
253 251 258 259 259 250 239 242 223 210 212 201 200 188 179 176 171 172 175 175 173 167 163 161 159 161 170 164 176 180 169 178 169 165 150 160 157 152 154 147 139 137 124 127 175 156 226 250 270
255 265 262 261 260 262 247 248 235 202 212 209 203 190 178 179 172 172 176 174 173 167 165 165 161 165 171 173 173 183 183 179 160 151 139 157 154 154 152 149 148 155 157 154 194 141 217 241 269
252 257 257 255 255 252 250 248 242 221 210 205 199 194 180 177 168 167 170 163 168 166 166 162 161 166 170 176 180 189 188 174 158 160 155 167 158 156 150 154 157 173 173 193 188 223 210 270 301
239 245 250 246 242 247 249 246 236 226 211 196 189 186 180 174 168 168 171 167 173 170 164 162 165 170 174 180 184 190 197 185 172 177 166 166 162 157 160 163 167 181 182 190 180 221 223 221 264
237 238 241 250 252 257 247 237 227 212 206 182 177 179 172 174 168 168 171 167 171 168 164 162 167 171 175 180 183 186 190 192 188 180 176 172 169 163 157 158 174 173 180 199 184 215 221 217 259
242 242 250 260 266 263 246 236 211 190 200 170 169 172 168 170 164 160 159 156 165 167 165 162 163 169 173 179 181 182 182 191 190 172 172 172 165 170 153 167 173 173 186 195 203 215 213 211 234
240 249 250 255 263 265 253 239 220 187 200 187 179 172 160 159 154 156 156 155 164 158 157 159 159 165 172 178 185 182 181 182 178 174 173 170 161 158 158 173 175 178 191 196 207 225 222 217 219
240 244 250 257 260 263 267 259 160 138 164 175 171 162 153 156 149 141 140 153 155 151 155 158 155 159 167 174 176 175 168 170 171 174 170 163 158 164 171 176 181 187 191 192 213 233 217 217 221
248 250 247 250 259 269 271 267 77 105 160 140 149 143 136 130 128 137 140 136 151 157 157 152 158 163 166 164 164 160 154 161 166 167 161 156 161 170 177 182 187 200 201 199 214 236 226 228 226
Height
1490 1490 1490 1492 1489 1484 1480 1468 1462 1465 1468 1472 1473 1475 1480 1485 1490 1504 1506 1505 1506 1506 1507 1508 1509 1509 1510 1510 1511 1512 1512 1512 1513 1513 1514 1514 1515 1515 1516 1517 1517 1517 1517 1518 1520 1521 1523 1524 1526
1490 1491 1493 1490 1485 1490 1482 1467 1468 1469 1472 1474 1476 1479 1482 1490 1495 1502 1505 1507 1507 1508 1509 1510 1510 1511 1511 1512 1513 1513 1513 1514 1514 1515 1515 1516 1516 1517 1518 1518 1519 1519 1519 1520 1521 1523 1524 1526 1527
1490 1492 1492 1482 1481 1483 1478 1468 1469 1471 1474 1476 1479 1483 1488 1494 1499 1503 1506 1508 1509 1509 1510 1511 1511 1512 1513 1513 1514 1514 1515 1515 1516 1516 1517 1517 1518 1519 1519 1520 1521 1521 1521 1522 1523 1524 1526 1527 1528
1492 1492 1488 1480 1479 1469 1467 1467 1470 1472 1475 1477 1480 1486 1494 1498 1501 1504 1507 1509 1510 1510 1511 1511 1512 1513 1514 1514 1515 1516 1516 1517 1517 1517 1518 1518 1519 1520 1521 1521 1522 1523 1523 1524 1525 1526 1527 1528 1529
1493 1489 1483 1480 1473 1466 1464 1467 1470 1472 1476 1479 1483 1490 1497 1501 1503 1505 1508 1510 1511 1511 1512 1513 1513 1514 1515 1516 1516 1517 1517 1518 1518 1518 1519 1520 1521 1521 1522 1523 1524 1524 1525 1526 1527 1528 1528 1529 1530
1491 1482 1484 1483 1473 1465 1465 1469 1471 1474 1477 1481 1485 1491 1499 1503 1504 1506 1509 1511 1512 1512 1513 1514 1514 1515 1516 1517 1518 1518 1519 1519 1519 1520 1520 1521 1522 1523 1523 1524 1525 1526 1527 1528 1528 1529 1530 1531 1532
1490 1482 1482 1477 1473 1469 1467 1470 1472 1475 1478 1481 1485 1491 1499 1503 1505 1507 1509 1511 1513 1513 1513 1514 1516 1516 1517 1518 1519 1519 1520 1521 1521 1521 1522 1523 1523 1524 1525 1526 1526 1527 1528 1529 1530 1530 1531 1532 1533
1486 1481 1479 1473 1471 1471 1468 1470 1473 1477 1479 1483 1485 1489 1498 1503 1505 1508 1510 1512 1513 1514 1515 1516 1517 1517 1518 1519 1520 1521 1521 1522 1523 1523 1524 1524 1525 1526 1526 1527 1528 1528 1529 1530 1531 1532 1532 1533 1534
1484 1484 1481 1472 1468 1469 1468 1471 1474 1478 1480 1483 1486 1489 1496 1502 1505 1507 1510 1513 1514 1516 1517 1517 1518 1519 1520 1521 1521 1522 1523 1523 1524 1525 1525 1526 1526 1527 1528 1529 1529 1530 1530 1531 1532 1533 1534 1534 1535
1480 1482 1476 1466 1464 1467 1469 1471 1474 1477 1481 1485 1489 1493 1497 1501 1504 1507 1509 1512 1514 1516 1517 1518 1520 1520 1521 1522 1522 1523 1524 1525 1525 1526 1527 1527 1528 1529 1530 1530 1531 1531 1532 1532 1533 1534 1534 1535 1536
1475 1475 1469 1467 1467 1468 1470 1471 1474 1476 1480 1485 1490 1494 1497 1501 1504 1507 1509 1511 1514 1516 1518 1519 1520 1521 1522 1523 1524 1524 1525 1526 1526 1527 1528 1529 1530 1530 1531 1531 1531 1532 1532 1533 1534 1534 1535 1535 1536
1472 1470 1469 1468 1469 1471 1471 1472 1474 1477 1480 1484 1489 1494 1497 1500 1503 1506 1509 1511 1513 1516 1518 1519 1520 1521 1522 1523 1524 1525 1526 1527 1527 1528 1529 1529 1530 1531 1532 1532 1532 1533 1533 1534 1534 1534 1535 1536 1537
1471 1469 1469 1470 1471 1472 1473 1473 1475 1478 1481 1484 1490 1493 1496 1499 1502 1505 1508 1511 1513 1515 1517 1519 1520 1521 1522 1523 1525 1526 1527 1528 1528 1528 1529 1530 1531 1531 1532 1533 1533 1534 1534 1534 1535 1535 1536 1536 1537
1469 1468 1468 1469 1470 1471 1472 1472 1475 1477 1481 1484 1488 1492 1495 1497 1500 1504 1507 1509 1512 1514 1516 1518 1519 1520 1521 1523 1525 1526 1527 1528 1529 1529 1530 1530 1531 1531 1532 1533 1533 1534 1535 1535 1535 1536 1536 1537 1537
1469 1469 1468 1467 1468 1469 1471 1472 1472 1475 1479 1483 1486 1490 1493 1496 1499 1502 1505 1508 1510 1513 1515 1517 1519 1520 1521 1523 1525 1526 1527 1528 1529 1529 1530 1530 1531 1531 1532 1533 1533 1534 1535 1535 1536 1536 1537 1537 1538
1468 1470 1472 1464 1464 1466 1474 1477 1469 1473 1477 1481 1485 1488 1492 1495 1498 1501 1503 1507 1509 1511 1514 1516 1518 1519 1521 1522 1524 1526 1527 1528 1529 1529 1530 1530 1531 1531 1532 1532 1533 1534 1534 1535 1536 1536 1537 1537 1538
1469 1473 1470 1463 1459 1462 1467 1472 1468 1470 1474 1478 1482 1486 1490 1493 1497 1500 1503 1505 1507 1509 1512 1514 1517 1518 1520 1521 1523 1525 1526 1527 1528 1529 1529 1530 1530 1531 1532 1532 1533 1533 1534 1535 1536 1536 1537 1537 1538
1473 1467 1466 1463 1457 1459 1464 1467 1466 1468 1470 1474 1479 1483 1488 1492 1495 1498 1501 1504 1506 1509 1510 1513 1515 1517 1519 1520 1522 1524 1525 1527 1527 1528 1529 1529 1530 1530 1531 1532 1532 1533 1534 1534 1535 1536 1537 1537 1538
1463 1465 1465 1458 1453 1458 1462 1465 1463 1465 1468 1472 1475 1480 1485 1490 1494 1497 1500 1503 1505 1506 1508 1511 1513 1515 1517 1519 1520 1522 1524 1525 1526 1527 1527 1528 1529 1530 1531 1531 1531 1532 1533 1534 1535 1536 1536 1537 1538
1462 1465 1464 1458 1453 1457 1462 1463 1460 1462 1465 1469 1472 1477 1482 1487 1492 1495 1498 1500 1503 1504 1507 1509 1511 1513 1515 1517 1519 1521 1523 1524 1525 1526 1527 1528 1528 1529 1530 1530 1531 1531 1532 1533 1534 1535 1536 1537 1538
1461 1463 1463 1462 1455 1454 1462 1466 1462 1460 1462 1467 1470 1474 1478 1483 1488 1492 1495 1498 1501 1503 1505 1507 1509 1511 1513 1515 1518 1520 1521 1523 1524 1525 1526 1526 1527 1528 1529 1529 1530 1531 1532 1532 1534 1534 1536 1537 1538
1464 1455 1456 1458 1462 1464 1463 1475 1463 1458 1459 1462 1467 1470 1475 1480 1484 1489 1493 1496 1499 1501 1503 1505 1507 1509 1511 1513 1515 1517 1519 1520 1522 1523 1524 1525 1526 1526 1527 1528 1529 1530 1531 1532 1533 1534 1535 1536 1537
1456 1452 1454 1457 1461 1464 1460 1469 1463 1455 1460 1461 1463 1467 1472 1476 1481 1485 1489 1493 1496 1499 1501 1503 1505 1507 1509 1511 1513 1515 1517 1519 1520 1521 1522 1524 1524 1525 1526 1527 1528 1529 1530 1531 1532 1533 1535 1535 1536
1452 1454 1455 1456 1461 1475 1463 1467 1469 1456 1459 1458 1461 1464 1469 1473 1478 1482 1487 1490 1494 1497 1499 1501 1503 1505 1507 1509 1511 1513 1515 1517 1518 1519 1521 1522 1523 1524 1525 1526 1527 1528 1529 1530 1531 1532 1533 1534 1535
1452 1464 1477 1481 1480 1475 1457 1462 1463 1450 1449 1452 1457 1462 1466 1471 1475 1480 1484 1488 1492 1494 1497 1498 1500 1502 1504 1506 1509 1511 1513 1515 1516 1517 1519 1520 1522 1522 1523 1524 1525 1526 1527 1529 1530 1531 1532 1533 1534
1454 1461 1479 1489 1485 1472 1457 1461 1454 1444 1446 1449 1454 1459 1464 1468 1473 1477 1481 1485 1488 1491 1494 1495 1497 1499 1502 1504 1506 1508 1510 1512 1514 1515 1517 1519 1520 1521 1522 1523 1524 1525 1526 1527 1529 1530 1531 1531 1532
1454 1456 1454 1465 1466 1471 1464 1455 1448 1445 1447 1449 1454 1458 1462 1467 1470 1475 1479 1483 1486 1489 1491 1493 1495 1497 1500 1502 1504 1506 1507 1509 1511 1513 1515 1517 1518 1520 1521 1522 1523 1523 1524 1526 1527 1528 1529 1530 1530
1446 1448 1456 1465 1479 1480 1466 1458 1456 1451 1450 1450 1454 1458 1463 1467 1470 1474 1476 1480 1484 1487 1490 1492 1493 1495 1497 1500 1502 1504 1505 1507 1509 1511 1513 1515 1517 1518 1519 1521 1521 1522 1523 1524 1525 1527 1527 1528 1529
1448 1451 1454 1457 1462 1474 1477 1467 1445 1448 1449 1451 1454 1457 1462 1466 1470 1474 1476 1480 1483 1486 1488 1490 1492 1493 1495 1498 1500 1502 1503 1505 1507 1508 1511 1513 1515 1516 1518 1519 1520 1521 1522 1523 1524 1525 1526 1527 1527
1444 1448 1453 1467 1469 1464 1469 1466 1444 1447 1448 1451 1455 1458 1462 1466 1470 1475 1477 1480 1482 1484 1486 1488 1490 1492 1494 1495 1497 1499 1501 1503 1505 1507 1509 1511 1513 1515 1516 1517 1518 1519 1520 1521 1522 1523 1524 1525 1525